Newton, KS

3:04 PM CDT on June 26, 2017 (GMT -0500)
Newton City County

Weather History for KEWK - February, 2013

Change the Weather History Date:

Friday, February 22, 2013

  Actual Average Record
Temperature  
Mean Temperature 16 °F -  
Max Temperature 24 °F 44 °F 78 °F (2017)
Min Temperature 8 °F 26 °F 8 °F (2013)
Degree Days  
Heating Degree Days 49    
Moisture  
Dew Point 9 °F    
Average Humidity 74    
Maximum Humidity 86    
Minimum Humidity 59    
Precipitation  
Precipitation 0.01 in - - ()
Sea Level Pressure  
Sea Level Pressure 30.03 in    
Wind  
Wind Speed 11 mph (WNW)    
Max Wind Speed 18 mph    
Max Gust Speed 26 mph    
Visibility 10 miles    
Events      
Averages and records for this station are not official NWS values.
T = Trace of Precipitation, MM = Missing Value Source: NWS Daily Summary

Daily Weather History Graph

Daily Weather History Graph

Search for Another Location

Airport or City:

Trip Planner

Search our weather history database for the weather conditions in past years. The results will help you decide how hot, cold, wet, or windy it might be!

Date:

Astronomy

Feb. 22, 2013 Rise Set
Actual Time 7:10 AM CST 6:15 PM CST
Civil Twilight 6:43 AM CST 6:42 PM CST
Nautical Twilight 6:12 AM CST 7:12 PM CST
Astronomical Twilight 5:42 AM CST 7:43 PM CST
Moon 3:30 PM CST (2/22) 4:54 AM CST (2/22)
Length of Visible Light 11h 58m
Length of Day
11h 05m
Waxing Gibbous, 90% of the Moon is Illuminated
Feb 22
Waxing Gibbous
Feb 25
Full
Mar 4
Last Quarter
Mar 11
New
Mar 19
First Quarter

Hourly Weather History & Observations

Time (CST) Temp. Windchill Dew Point Humidity Pressure Visibility Wind Dir Wind Speed Gust Speed Precip Events Conditions
12:15 AM 15.8 °F 1.4 °F 10.4 °F 79% 29.88 in 10.0 mi WNW 13.8 mph - N/A   Overcast
12:55 AM 17.6 °F 2.7 °F 12.2 °F 79% 29.88 in 10.0 mi NW 16.1 mph - N/A   Overcast
1:15 AM 19.4 °F 6.0 °F 14.0 °F 80% 29.88 in 10.0 mi WNW 13.8 mph 21.9 mph N/A   Overcast
1:35 AM 15.8 °F 2.1 °F 12.2 °F 86% 29.89 in 10.0 mi WNW 12.7 mph - N/A   Mostly Cloudy
1:55 AM 15.8 °F 2.7 °F 8.6 °F 73% 29.91 in 10.0 mi West 11.5 mph - N/A   Partly Cloudy
2:15 AM 12.2 °F -1.8 °F 8.6 °F 85% 29.92 in 10.0 mi West 11.5 mph - N/A   Clear
2:35 AM 12.2 °F -1.8 °F 8.6 °F 85% 29.93 in 10.0 mi West 11.5 mph - N/A   Mostly Cloudy
2:55 AM 12.2 °F -2.5 °F 6.8 °F 79% 29.93 in 10.0 mi West 12.7 mph - N/A   Scattered Clouds
3:15 AM 10.4 °F -5.4 °F 6.8 °F 85% 29.94 in 10.0 mi West 13.8 mph - N/A   Clear
3:35 AM 10.4 °F -6.0 °F 6.8 °F 85% 29.94 in 10.0 mi WNW 15.0 mph - N/A   Clear
3:55 AM 10.4 °F -6.0 °F 6.8 °F 85% 29.93 in 10.0 mi WNW 15.0 mph - N/A   Clear
4:15 AM 10.4 °F -6.6 °F 6.8 °F 85% 29.93 in 10.0 mi NW 16.1 mph - N/A   Clear
4:35 AM 12.2 °F -5.3 °F 6.8 °F 79% 29.92 in 10.0 mi NW 18.4 mph 23.0 mph N/A   Clear
4:55 AM 12.2 °F -5.3 °F 6.8 °F 79% 29.93 in 10.0 mi NW 18.4 mph 26.5 mph N/A   Scattered Clouds
5:15 AM 12.2 °F -3.1 °F 6.8 °F 79% 29.94 in 10.0 mi NW 13.8 mph - N/A   Partly Cloudy
5:35 AM 12.2 °F -3.1 °F 6.8 °F 79% 29.95 in 10.0 mi NW 13.8 mph 20.7 mph N/A   Clear
5:55 AM 10.4 °F -5.4 °F 6.8 °F 85% 29.96 in 10.0 mi NW 13.8 mph - N/A   Clear
6:15 AM 10.4 °F -2.4 °F 5.0 °F 79% 29.98 in 10.0 mi West 9.2 mph - N/A   Clear
6:35 AM 10.4 °F -2.4 °F 5.0 °F 79% 29.99 in 10.0 mi West 9.2 mph - N/A   Clear
6:55 AM 10.4 °F -4.1 °F 3.2 °F 73% 29.99 in 10.0 mi West 11.5 mph - N/A   Clear
7:35 AM 8.6 °F -6.3 °F 3.2 °F 79% 30.00 in 10.0 mi WNW 11.5 mph - N/A   Clear
7:55 AM 8.6 °F -7.0 °F 3.2 °F 79% 30.00 in 10.0 mi WNW 12.7 mph - N/A   Clear
8:15 AM 8.6 °F -6.3 °F 5.0 °F 85% 30.00 in 10.0 mi NW 11.5 mph - N/A   Clear
8:35 AM 10.4 °F -4.8 °F 5.0 °F 79% 30.01 in 10.0 mi WNW 12.7 mph - N/A   Clear
8:55 AM 10.4 °F -3.3 °F 6.8 °F 85% 30.04 in 10.0 mi WNW 10.4 mph - N/A   Clear
9:15 AM 12.2 °F -1.0 °F 6.8 °F 79% 30.05 in 10.0 mi WNW 10.4 mph - N/A   Clear
9:35 AM 12.2 °F -1.0 °F 6.8 °F 79% 30.06 in 10.0 mi WNW 10.4 mph - N/A   Clear
9:55 AM 14.0 °F 0.5 °F 6.8 °F 73% 30.07 in 10.0 mi WNW 11.5 mph - N/A   Clear
10:15 AM 15.8 °F 3.4 °F 6.8 °F 68% 30.08 in 10.0 mi WNW 10.4 mph - N/A   Clear
10:35 AM 15.8 °F 3.4 °F 8.6 °F 73% 30.08 in 10.0 mi WNW 10.4 mph - N/A   Clear
10:55 AM 17.6 °F 5.7 °F 8.6 °F 68% 30.08 in 10.0 mi WNW 10.4 mph - N/A   Clear
11:15 AM 17.6 °F 7.3 °F 8.6 °F 68% 30.09 in 10.0 mi West 8.1 mph - N/A   Clear
11:35 AM 19.4 °F 9.5 °F 10.4 °F 68% 30.10 in 10.0 mi WNW 8.1 mph - N/A   Clear
11:55 AM 19.4 °F 10.4 °F 10.4 °F 68% 30.10 in 10.0 mi West 6.9 mph - N/A   Clear
12:15 PM 19.4 °F 10.4 °F 10.4 °F 68% 30.11 in 10.0 mi West 6.9 mph - N/A   Clear
12:35 PM 19.4 °F 9.5 °F 10.4 °F 68% 30.11 in 10.0 mi West 8.1 mph - N/A   Clear
12:55 PM 21.2 °F 10.9 °F 12.2 °F 68% 30.10 in 10.0 mi WNW 9.2 mph - N/A   Clear
1:15 PM 21.2 °F 10.1 °F 12.2 °F 68% 30.09 in 10.0 mi West 10.4 mph - N/A   Clear
1:35 PM 21.2 °F 10.1 °F 12.2 °F 68% 30.09 in 10.0 mi West 10.4 mph - N/A   Clear
1:55 PM 23.0 °F 11.7 °F 12.2 °F 63% 30.08 in 10.0 mi WNW 11.5 mph - 0.01 in   Clear
2:15 PM 23.0 °F 12.4 °F 12.2 °F 63% 30.08 in 10.0 mi WNW 10.4 mph - N/A   Clear
2:35 PM 24.8 °F 13.4 °F 12.2 °F 59% 30.07 in 10.0 mi WNW 12.7 mph - N/A   Clear
2:55 PM 23.0 °F 11.7 °F 12.2 °F 63% 30.07 in 10.0 mi WNW 11.5 mph - N/A   Clear
3:15 PM 23.0 °F 13.1 °F 12.2 °F 63% 30.07 in 10.0 mi WNW 9.2 mph - N/A   Clear
3:35 PM 23.0 °F 12.4 °F 12.2 °F 63% 30.07 in 10.0 mi West 10.4 mph - N/A   Clear
3:55 PM 23.0 °F 11.7 °F 10.4 °F 59% 30.07 in 10.0 mi WNW 11.5 mph - N/A   Clear
4:15 PM 23.0 °F 13.1 °F 12.2 °F 63% 30.07 in 10.0 mi WNW 9.2 mph - N/A   Clear
4:35 PM 23.0 °F 13.1 °F 12.2 °F 63% 30.07 in 10.0 mi WNW 9.2 mph - N/A   Clear
4:55 PM 21.2 °F 11.7 °F 10.4 °F 63% 30.07 in 10.0 mi WNW 8.1 mph - N/A   Clear
5:15 PM 21.2 °F 10.9 °F 10.4 °F 63% 30.07 in 10.0 mi WNW 9.2 mph - N/A   Clear
5:35 PM 21.2 °F 12.6 °F 10.4 °F 63% 30.07 in 10.0 mi WNW 6.9 mph - N/A   Clear
5:55 PM 19.4 °F 11.5 °F 8.6 °F 63% 30.07 in 10.0 mi WNW 5.8 mph - N/A   Clear
6:15 PM 19.4 °F 11.5 °F 8.6 °F 63% 30.07 in 10.0 mi WNW 5.8 mph - N/A   Clear
6:35 PM 19.4 °F 14.3 °F 10.4 °F 68% 30.07 in 10.0 mi WNW 3.5 mph - N/A   Clear
6:55 PM 17.6 °F 8.2 °F 8.6 °F 68% 30.08 in 10.0 mi WNW 6.9 mph - N/A   Clear
7:15 PM 17.6 °F 8.2 °F 8.6 °F 68% 30.08 in 10.0 mi WNW 6.9 mph - N/A   Clear
7:35 PM 17.6 °F 9.3 °F 8.6 °F 68% 30.08 in 10.0 mi West 5.8 mph - N/A   Clear
7:55 PM 17.6 °F 9.3 °F 8.6 °F 68% 30.08 in 10.0 mi WNW 5.8 mph - N/A   Clear
8:15 PM 15.8 °F 8.6 °F 8.6 °F 73% 30.08 in 10.0 mi WNW 4.6 mph - N/A   Clear
8:35 PM 15.8 °F 8.6 °F 8.6 °F 73% 30.07 in 10.0 mi West 4.6 mph - N/A   Clear
8:55 PM 14.0 °F 5.1 °F 6.8 °F 73% 30.08 in 10.0 mi West 5.8 mph - N/A   Clear
9:15 PM 12.2 °F 1.7 °F 6.8 °F 79% 30.09 in 10.0 mi West 6.9 mph - N/A   Clear
9:35 PM 12.2 °F 2.9 °F 6.8 °F 79% 30.10 in 10.0 mi West 5.8 mph - N/A   Clear
9:55 PM 14.0 °F 6.5 °F 8.6 °F 79% 30.09 in 10.0 mi West 4.6 mph - N/A   Clear
10:15 PM 12.2 °F 4.3 °F 6.8 °F 79% 30.09 in 10.0 mi WSW 4.6 mph - N/A   Clear
10:35 PM 12.2 °F 4.3 °F 8.6 °F 85% 30.09 in 10.0 mi WSW 4.6 mph - N/A   Clear
10:55 PM 12.2 °F 2.9 °F 6.8 °F 79% 30.09 in 10.0 mi WSW 5.8 mph - N/A   Clear
11:15 PM 10.4 °F 0.8 °F 6.8 °F 85% 30.09 in 10.0 mi West 5.8 mph - N/A   Clear
11:35 PM 12.2 °F 4.3 °F 8.6 °F 85% 30.09 in 10.0 mi West 4.6 mph - N/A   Clear
11:55 PM 12.2 °F 4.3 °F 8.6 °F 85% 30.08 in 10.0 mi West 4.6 mph - N/A   Clear